Tracking 30107 objects as of 18-Jan-2025
HD Live streaming from Space Station
objects crossing your sky now

ARIANE 1 DEB

Track ARIANE 1 DEB now!
10-day predictions


NORAD ID: 17429
Int'l Code: 1986-019FQ
Perigee: 631.4 km
Apogee: 694.3 km
Inclination: 99.1 °
Period: 97.8 minutes
Semi major axis: 7033 km
RCS: 0.0335 m2 (small)
Launch date: February 22, 1986
Source: France (FR)
Launch site: FRENCH GUIANA (FRGUI)

Note: This is SATELLITE DEBRIS
Your satellite tracking list
Your tracking list is empty




NASA's NSSDC Master Catalog

Two Line Element Set (TLE):
1 17429U 86019FQ  25018.49614561  .00016669  00000-0  26372-2 0  9999
2 17429  99.0904 224.5801 0044688 100.7584 259.8655 14.71687144996291
Source of the keplerian elements: AFSPC